Location: Unspecified
(0.0000°N, 0.0000°E)
Time: 14:51:18
(UTC+00:00)

N. Korean satellite - Pass Details

Date: 26 January 2020
Orbit: 456 x 505 km, 97.2° (Epoch: 24 February)

Event Time Altitude Azimuth Distance (km) Brightness Sun altitude
Rises 05:28:42 0° 8° (N) 2,560 10.1 -10.3°
Reaches altitude 10° 05:30:45 10° 6° (N) 1,688 9.2 -9.8°
Maximum altitude 05:34:23 73° 280° (W) 524 6.5 -9.0°
Drops below altitude 10° 05:38:04 10° 196° (SSW) 1,713 9.4 -8.1°
Sets 05:40:10 0° 194° (SSW) 2,602 10.3 -7.6°
